Location: Newark
(30.0333°N, 31.2167°E)
Time: 11:21:15
(UTC+00:00)

Vanguard 3 - Pass Details

Date: 27 January 2020
Orbit: 508 x 3263 km, 33.3° (Epoch: 25 February)

Event Time Altitude Azimuth Distance (km) Brightness Sun altitude
Rises 17:53:59 0° 278° (W) 7,220 13.1 -31.7°
Reaches altitude 10° 17:58:56 10° 279° (W) 6,194 12.4 -32.8°
Maximum altitude 18:18:40 82° 8° (N) 2,675 9.5 -37.0°
Enters shadow 18:21:27 67° 78° (ENE) 2,646 9.3 -37.6°
